Gage, OK

11:41 AM CDT on March 25, 2017 (GMT -0500)
Gage

Weather History for KGAG - March, 2014

Change the Weather History Date:

Friday, March 21, 2014

  Actual Average Record
Temperature  
Mean Temperature 55 °F -  
Max Temperature 66 °F 65 °F 91 °F (2007)
Min Temperature 39 °F 33 °F 10 °F (1983)
Degree Days  
Heating Degree Days 10    
Growing Degree Days 5 (Base 50)    
Moisture  
Dew Point 21 °F    
Average Humidity 26    
Maximum Humidity 49    
Minimum Humidity 20    
Precipitation  
Precipitation 0.00 in - - ()
Sea Level Pressure  
Sea Level Pressure 29.85 in    
Wind  
Wind Speed 18 mph (North)    
Max Wind Speed 26 mph    
Max Gust Speed 34 mph    
Visibility 10 miles    
Events      
Averages and records for this station are not official NWS values.
T = Trace of Precipitation, MM = Missing Value Source: NWS Daily Summary

Daily Weather History Graph

Daily Weather History Graph

Search for Another Location

Airport or City:

Trip Planner

Search our weather history database for the weather conditions in past years. The results will help you decide how hot, cold, wet, or windy it might be!

Date:

Astronomy

Mar. 21, 2014 Rise Set
Actual Time 7:41 AM CDT 7:51 PM CDT
Civil Twilight 7:15 AM CDT 8:17 PM CDT
Nautical Twilight 6:45 AM CDT 8:47 PM CDT
Astronomical Twilight 6:15 AM CDT 9:18 PM CDT
Moon 12:05 AM CDT (3/21) 10:42 AM CDT (3/21)
Length of Visible Light 13h 02m
Length of Day
12h 10m
Waning Gibbous, 75% of the Moon is Illuminated
Mar 21
Waning Gibbous
Mar 23
Last Quarter
Mar 30
New
Apr 7
First Quarter
Apr 15
Full

Hourly Weather History & Observations

Time (CDT) Temp. Windchill Dew Point Humidity Pressure Visibility Wind Dir Wind Speed Gust Speed Precip Events Conditions
12:53 AM 57.9 °F - 21.9 °F 25% 29.71 in 10.0 mi South 17.3 mph - N/A   Clear
1:53 AM 60.1 °F - 21.0 °F 22% 29.68 in 10.0 mi South 25.3 mph 34.5 mph N/A   Clear
2:53 AM 57.9 °F - 19.9 °F 23% 29.66 in 10.0 mi South 25.3 mph 33.4 mph N/A   Clear
3:53 AM 55.9 °F - 19.0 °F 24% 29.67 in 10.0 mi SSW 16.1 mph - N/A   Clear
4:53 AM 55.0 °F - 19.0 °F 24% 29.65 in 10.0 mi SSW 11.5 mph - N/A   Clear
5:53 AM 57.9 °F - 19.0 °F 22% 29.64 in 10.0 mi SSW 15.0 mph - N/A   Clear
6:53 AM 53.1 °F - 19.9 °F 27% 29.69 in 10.0 mi West 6.9 mph - N/A   Clear
7:53 AM 50.0 °F - 19.9 °F 31% 29.72 in 10.0 mi SW 6.9 mph - N/A   Clear
8:53 AM 55.0 °F - 15.1 °F 21% 29.78 in 10.0 mi NW 15.0 mph - N/A   Clear
9:53 AM 55.9 °F - 21.0 °F 26% 29.81 in 10.0 mi North 18.4 mph 26.5 mph N/A   Clear
10:53 AM 57.9 °F - 23.0 °F 26% 29.83 in 10.0 mi North 20.7 mph 26.5 mph N/A   Clear
11:53 AM 60.1 °F - 19.9 °F 21% 29.87 in 10.0 mi North 21.9 mph 34.5 mph N/A   Clear
12:53 PM 60.1 °F - 23.0 °F 24% 29.89 in 10.0 mi North 26.5 mph 32.2 mph N/A   Clear
1:53 PM 64.0 °F - 25.0 °F 23% 29.89 in 10.0 mi NNE 23.0 mph 33.4 mph N/A   Clear
2:53 PM 66.0 °F - 26.1 °F 22% 29.88 in 10.0 mi NNE 21.9 mph 31.1 mph N/A   Clear
3:53 PM 66.9 °F - 24.1 °F 20% 29.88 in 10.0 mi NNE 23.0 mph 31.1 mph N/A   Clear
4:53 PM 64.0 °F - 24.1 °F 22% 29.91 in 10.0 mi NNE 24.2 mph 29.9 mph N/A   Clear
5:53 PM 63.0 °F - 23.0 °F 22% 29.94 in 10.0 mi NNE 19.6 mph 29.9 mph N/A   Clear
6:53 PM 61.0 °F - 21.0 °F 21% 29.97 in 10.0 mi NNE 23.0 mph 29.9 mph N/A   Clear
7:53 PM 55.9 °F - 21.0 °F 26% 30.01 in 10.0 mi NNE 11.5 mph - N/A   Clear
8:53 PM 51.1 °F - 21.0 °F 31% 30.04 in 10.0 mi NNE 9.2 mph - N/A   Clear
9:53 PM 45.0 °F 41.8 °F 21.0 °F 39% 30.06 in 10.0 mi NNE 5.8 mph - N/A   Clear
10:53 PM 44.1 °F 40.1 °F 21.0 °F 40% 30.09 in 10.0 mi NNE 6.9 mph - N/A   Clear
11:53 PM 39.0 °F 32.3 °F 21.0 °F 49% 30.05 in 10.0 mi NE 10.4 mph - N/A   Clear